星链-3373 (STARLINK-3373 )

导读

STARLINK-3373是美国太空探索技术公司(SpaceX)星链(Starlink)项目的低轨通信卫星,于2022年1月19日发射入轨。作为星链星座的组成部分,它运行在近地轨道,旨在为全球提供高速低延迟互联网服务,尤其助力偏远地区网络覆盖,同时支撑部分行业通信需求,是SpaceX大规模星座部署中的重要单元,目前稳定在轨运行。

Basic Information
目录编号:
51122
目录名称:
STARLINK-3373
国际标识:
2022-005U
轨道中心:
EARTH
卫星名称:
星链-3373
卫星全名:
星链-3373 (STARLINK-3373 )
卫星状态:
已陨落 最后检测时间 2024-07-04
发射日期:
2022-01-19 UTC
国别 :
美国 (US)
星等 :
--
Orbit Information
数据来源 国际轨道数据
星历时间: 2024-07-04T17:38:44+0800
轨道信息已过期709天
半长轴: 6530.705km
偏心率: 0.0007815
轨道倾角: 53.196°
近地点辐角 254.225°
升交点赤经 120.549°
平近点角 217.619°
近地点: 147.466km
远地点: 157.674km
周期: 87.539分钟
每日圈数: 16.449879
Detailed Information
固有亮度:
5
最大亮度:
2.5
卫星平台:
Starlink v1.5
覆盖范围:
全球
运营商:
太空探索技术公司
运营商所在国:
美国
制造商(研发单位):
太空探索技术公司
制造商所在国:
美国
使用方式:
暂无
Satellite Introduction
星链(Starlink)计划是由太空探索技术公司(SpaceX)提出的一个巨型低轨卫星互联网星座项目,计划在2019年至2024年间在太空搭建由约1.2万颗卫星组成的“星链”网络,其中1584颗将部署在地球上空550千米处的近地轨道,并从2020年开始工作。该卫星已陨落。